This demonstration page uses our WeatherBlox Daily Observations layout. Learn more.

Left ArrowRight Arrow

44.8408, -93.29828

Hourly Observations for October 25, 2021

Temp ( °F °C ) Dew Point ( °F °C ) Humidity (%) Winds ( mph kmh ) Pressure ( in mb ) Visibility ( mi km ) Precip ( " mm )
12:53 am 00:53 Mostly Cloudy 42 5.6 33 0.6 71 71 NE 14 22 30.06 1018 10 16 N/A
1:53 am 01:53 Mostly Cloudy 41 5 32 undefined 70 70 NE 10 17 30.08 1019 10 16 N/A
2:53 am 02:53 Mostly Cloudy 41 5 32 undefined 70 70 NE 8 13 30.10 1019 10 16 N/A
3:53 am 03:53 Mostly Cloudy 40 4.4 31 -0.6 70 70 NE 12 19 30.11 1020 10 16 N/A
4:53 am 04:53 Mostly Cloudy 39 3.9 31 -0.6 73 73 NE 8 13 30.14 1021 10 16 N/A
5:53 am 05:53 Mostly Cloudy 38 3.3 31 -0.6 76 76 NNE 7 11 30.13 1020 10 16 N/A
6:53 am 06:53 Partly Cloudy 36 2.2 30 -1.1 79 79 NNE 8 13 30.14 1021 10 16 N/A
7:53 am 07:53 Mostly Sunny 36 2.2 31 -0.6 82 82 NNE 8 13 30.16 1021 10 16 N/A
8:53 am 08:53 Mostly Sunny 39 3.9 33 0.6 79 79 NE 5 7 30.18 1022 10 16 N/A
9:53 am 09:53 Sunny 42 5.6 32 undefined 68 68 E 12 19 30.18 1022 10 16 N/A
10:53 am 10:53 Mostly Sunny 45 7.2 31 -0.6 58 58 E 15 24 30.19 1023 10 16 N/A
11:53 am 11:53 Mostly Sunny 48 8.9 31 -0.6 52 52 ENE 12 19 30.18 1022 10 16 N/A
12:53 pm 12:53 Mostly Sunny 50 10 30 -1.1 46 46 ENE 10 17 30.16 1022 10 16 N/A
1:53 pm 13:53 Mostly Sunny 52 11.1 28 -2.2 40 40 E 9 15 30.15 1021 10 16 N/A
2:53 pm 14:53 Mostly Sunny 52 11.1 28 -2.2 40 40 E 9 15 30.14 1021 10 16 N/A
3:53 pm 15:53 Mostly Sunny 52 11.1 27 -2.8 38 38 E 8 13 30.14 1021 10 16 N/A
4:53 pm 16:53 Partly Cloudy 52 11.1 26 -3.3 37 37 E 9 15 30.15 1021 10 16 N/A
5:53 pm 17:53 Sunny 50 10 26 -3.3 39 39 ENE 7 11 30.15 1021 10 16 N/A
6:53 pm 18:53 Partly Cloudy 49 9.4 26 -3.3 41 41 E 9 15 30.14 1021 10 16 N/A
7:53 pm 19:53 Partly Cloudy 47 8.3 29 -1.7 50 50 E 7 11 30.13 1020 10 16 N/A
8:53 pm 20:53 Partly Cloudy 46 7.8 30 -1.1 54 54 E 8 13 30.14 1021 10 16 N/A
9:53 pm 21:53 Partly Cloudy 45 7.2 30 -1.1 56 56 SE 6 9 30.14 1021 10 16 N/A
10:53 pm 22:53 Mostly Cloudy 42 5.6 30 -1.1 62 62 SE 3 6 30.16 1021 10 16 N/A
11:53 pm 23:53 Mostly Cloudy 42 5.6 31 -0.6 65 65 ESE 5 7 30.16 1021 10 16 N/A

Powered by AerisWeather